[[[{"header":{"parameterUnit":"kt","parameterCategory":2,"dx":1,"dy":1,"la1":30.253999710083008,"la2":30.299108505249023,"lo1":-89.0895004272461,"lo2":-89.04439544677734,"nx":28,"ny":28,"refTime":"2022-09-29T21:00:00:Z","depth":0,"parameterNumber":1,"parameterNumberName":"U-component_of_WINDS"},"data":[-3.0317,-3.0512,-3.0499,-3.0716,-3.074,-3.0887,-3.0935,-3.0996,-3.1041,-3.1215,-3.1312,-3.1319,-3.1359,-3.1473,-3.1579,-3.1579,-3.1628,-3.1707,-3.1696,-3.1352,-3.1304,-3.1258,-3.1213,-3.1716,-3.1716,-3.2056,-3.2059,-3.2061,-3.0068,-3.0094,-3.0204,-3.0302,-3.0397,-3.0312,-3.0383,-3.0469,-3.0602,-3.0658,-3.0753,-3.0905,-3.1023,-3.1037,-3.1149,-3.1241,-3.121,-3.1273,-3.127,-3.1279,-3.0909,-3.0861,-3.1297,-3.1297,-3.1297,-3.1297,-3.1297,-3.1296,-2.9612,-2.9729,-2.978,-2.9899,-2.9944,-3.001,-3.012,-3.0124,-3.0232,-3.0346,-3.0308,-3.0459,-3.0513,-3.0641,-3.0681,-3.0799,-3.0727,-3.0793,-3.0811,-3.083,-3.0855,-3.0376,-3.0816,-3.0815,-3.0813,-3.0812,-3.0811,0,-2.9276,-2.9257,-2.936,-2.9461,-2.9547,-2.9624,-2.9692,-2.9758,-2.9713,-2.9804,-2.9935,-3.0008,-3.0153,-3.0276,-3.0377,-3.0405,-3.0332,-3.032,-3.0367,-3.0393,-3.0402,-3.0406,-2.981,-3.0309,-3.0305,-3.0302,-3.0299,-3.0298,-2.8821,-2.8957,-2.9002,-2.9077,-2.9111,-2.9232,-2.9302,-2.9251,-2.9328,-2.9404,-2.951,-2.9631,-2.9726,-2.9938,-2.9944,-3.0053,-3.002,-3.0213,-3.0036,-3.0053,-3.0031,-3.0027,-3.0042,-3.0251,-3.0257,-3.0262,-3.0266,0,-2.8567,-2.8543,-2.8749,-2.878,-2.8792,-2.8939,-2.8966,-2.908,-2.9071,-2.9228,-2.9262,-2.9251,-2.938,-2.9354,-2.9497,-2.948,-2.9725,-2.9685,-2.9707,-2.97,-2.9875,-2.9862,-3.0435,-3.051,-2.998,-2.9985,-2.9989,0,-2.8173,-2.8353,-2.8307,-2.8429,-2.8627,-2.8571,-2.8769,-2.8782,-2.8826,-2.8949,-2.8857,-2.8975,-2.8922,-2.9036,-2.9011,-2.9205,-2.923,-2.9232,-2.9225,-2.9245,-2.9246,-2.9291,-2.927,-2.9194,-2.9191,-2.9188,-2.9186,0,-2.7784,-2.7968,-2.8163,-2.8202,-2.8254,-2.8347,-2.8373,-2.8422,-2.8491,-2.8575,-2.8621,-2.8723,-2.8781,-2.8863,-2.8831,-2.8713,-2.9065,-2.8896,-2.9068,-2.9069,-2.9153,-2.915,-2.9657,-2.9182,-2.9181,-2.918,-2.9179,0,-2.7464,-2.7549,-2.7833,-2.7875,-2.7926,-2.8054,-2.8152,-2.8254,-2.8313,-2.8305,-2.8371,-2.8309,-2.8472,-2.8307,-2.8533,-2.8389,-2.8452,-2.8466,-2.8477,-2.8497,-2.8316,-2.8614,-2.9093,-2.9146,-2.8507,-2.8501,-2.8496,0,-2.7029,-2.7308,-2.7262,-2.7533,-2.7659,-2.7549,-2.769,-2.7743,-2.7745,-2.7852,-2.7852,-2.7977,-2.7847,-2.7883,-2.7997,-2.8005,-2.8192,-2.7978,-2.8142,-2.8149,-2.8137,-2.8576,-2.8658,-2.8989,-2.8423,-2.8431,-2.8436,0,-2.6689,-2.6749,-2.6801,-2.6844,-2.6904,-2.7008,-2.7169,-2.7278,-2.7353,-2.7421,-2.7558,-2.7728,-2.7639,-2.7699,-2.7659,-2.778,-2.8064,-2.7669,-2.767,-2.7747,-2.8382,-2.846,-2.8516,-2.801,-2.8019,-2.8026,-2.8379,0,-2.6223,-2.6358,-2.6493,-2.6589,-2.6664,-2.683,-2.6802,-2.6884,-2.6838,-2.6836,-2.7033,-2.707,-2.7184,-2.7237,-2.7194,-2.7476,-2.7427,-2.733,-2.7174,-2.7459,-2.7576,-2.7623,-2.7003,-2.6998,-2.6994,-2.6991,0,0,-2.5816,-2.6009,-2.5953,-2.6106,-2.6167,-2.6051,-2.6232,-2.6278,-2.6374,-2.642,-2.633,-2.6578,-2.6613,-2.6857,-2.6943,-2.6987,-2.7037,-2.6939,-2.7322,-2.7359,-2.7394,-2.7518,-2.7567,-2.6984,-2.6982,-2.6981,-2.6979,0,-2.5641,-2.5674,-2.5852,-2.5896,-2.596,-2.5947,-2.599,-2.6033,-2.604,-2.6231,-2.6136,-2.625,-2.6449,-2.6501,-2.6553,-2.6906,-2.6831,-2.6941,-2.7144,-2.7282,-2.7325,-2.7362,-2.7493,-2.754,-2.697,-2.697,-2.6971,0,-2.5306,-2.5336,-2.5418,-2.5547,-2.5588,-2.572,-2.5546,-2.5691,-2.5789,-2.5657,-2.585,-2.5868,-2.5933,-2.6165,-2.6268,-2.619,-2.6646,-2.6495,-2.652,-2.6533,-2.6666,-2.6717,-2.6763,-2.6166,-2.6163,-2.6161,0,0,-2.516,-2.5283,-2.5301,-2.5508,-2.554,-2.5524,-2.559,-2.5551,-2.5611,-2.5635,-2.5657,-2.572,-2.5834,-2.5912,-2.6018,-2.6275,-2.6288,-2.6397,-2.6435,-2.6466,-2.6496,-2.6638,-2.6688,-2.6151,-2.6151,-2.615,0,0,-2.509,-2.5118,-2.506,-2.5297,-2.5355,-2.5388,-2.5517,-2.5448,-2.554,-2.5519,-2.5462,-2.5476,-2.5691,-2.5713,-2.5581,-2.5963,-2.5808,-2.5839,-2.5942,-2.599,-2.6027,-2.6021,-2.5412,0,0,0,0,0,-2.4897,-2.5114,-2.5061,-2.5096,-2.526,-2.5416,-2.5437,-2.5394,-2.5285,-2.5389,-2.5396,-2.5309,-2.563,-2.5512,-2.5549,-2.5699,-2.602,-2.6043,-2.6065,-2.6259,-2.6309,-2.6351,0,0,0,0,0,0,-2.4911,-2.4954,-2.5055,-2.5098,-2.5134,-2.5408,-2.5215,-2.5209,-2.5273,-2.5254,-2.531,-2.5311,-2.5278,-2.549,-2.5524,-2.5668,-2.5401,-2.6029,-2.6049,-2.6067,-2.6276,-2.6317,-2.6352,0,0,0,0,0,-2.4921,-2.4956,-2.5229,-2.5094,-2.5126,-2.512,-2.5206,-2.52,-2.5249,-2.5261,-2.5258,-2.5211,-2.5283,-2.5309,-2.551,-2.5654,-2.5377,-2.539,-2.6042,-2.6057,-2.6071,-2.6296,0,0,0,0,0,0,-2.4929,-2.4952,-2.5235,-2.5243,-2.5009,-2.5104,-2.5117,-2.5192,-2.5251,-2.5251,-2.5158,-2.5142,-2.529,-2.5308,-2.5329,-2.5651,-2.5357,-2.5371,-2.5379,-2.6054,-2.6066,-2.6077,0,0,0,0,0,0,-2.4933,-2.496,-2.5239,-2.5134,-2.5129,-2.509,-2.5102,-2.5265,-2.5253,-2.5145,-2.5133,-2.515,-2.526,-2.5309,-2.5324,-2.5582,-2.5343,-2.5355,-2.5364,-2.5369,-2.6064,-2.6073,0,0,0,0,0,0,-2.4943,-2.4966,-2.5131,-2.5128,-2.5123,-2.5211,-2.5234,-2.5405,-2.5161,-2.5144,-2.5138,-2.5128,-2.5264,-2.5278,-2.5322,-2.5574,-2.558,-2.5343,-2.5352,-2.5358,-2.5362,0,0,0,0,0,0,0,-2.4952,-2.4808,-2.5187,-2.5123,-2.5119,-2.5318,-2.532,-2.5322,-2.5159,-2.515,-2.514,-2.5132,-2.5271,-2.5285,-2.5299,-2.5568,0,0,-2.5342,-2.5348,0,0,0,0,0,0,0,0,-2.4798,-2.4806,-2.5187,-2.5188,-2.519,-2.5318,-2.532,-2.5322,-2.5157,-2.515,-2.5142,-2.5135,-2.5275,-2.5286,-2.5297,0,0,0,0,0,0,0,0,0,0,0,0,0,0,0,-2.5187,-2.5188,0,-2.5318,-2.532,-2.5321,-2.5156,-2.515,-2.5144,-2.5138,-2.5278,-2.5287,-2.5296,0,0,0,0,0,0,0,0,0,0,0,0,0,0,0,0,0,0,0,0,0,0,0,0,0,0,0,0,0,0,0,0,0,0,0,0,0,0,0,0,0,0,0,0,0,0,0,0,0,0,0,0,0,0,0,0,0,0,0,0,0,0,0,0,0,0,0,0,0]}],[{"header":{"parameterUnit":"kt","parameterCategory":2,"dx":1,"dy":1,"la1":30.253999710083008,"la2":30.299108505249023,"lo1":-89.0895004272461,"lo2":-89.04439544677734,"nx":28,"ny":28,"refTime":"2022-09-29T21:00:00:Z","depth":0,"parameterNumber":2,"parameterNumberName":"V-component_of_WINDS"},"data":[-11.0291,-11.0453,-11.0446,-11.0626,-11.065,-11.077,-11.081,-11.0861,-11.0898,-11.1037,-11.1115,-11.1122,-11.1153,-11.1241,-11.1322,-11.1322,-11.1355,-11.1418,-11.1406,-11.114,-11.1102,-11.1066,-11.1027,-11.1426,-11.1427,-11.1682,-11.1684,-11.1686,-11.0091,-11.0118,-11.0213,-11.0299,-11.0379,-11.0314,-11.0376,-11.0445,-11.0554,-11.0602,-11.0679,-11.08,-11.0893,-11.0903,-11.099,-11.106,-11.1033,-11.1084,-11.1076,-11.1081,-11.0797,-11.0756,-11.1105,-11.1105,-11.1105,-11.1105,-11.1104,-11.1104,-10.9726,-10.9824,-10.9873,-10.9975,-11.0017,-11.0074,-11.0164,-11.0172,-11.0262,-11.0356,-11.0328,-11.0449,-11.0493,-11.0593,-11.0624,-11.0715,-11.0656,-11.0708,-11.072,-11.0732,-11.0747,-11.0373,-11.073,-11.0729,-11.0728,-11.0727,-11.0726,0,-10.9455,-10.9443,-10.9534,-10.9623,-10.9696,-10.9764,-10.9824,-10.988,-10.9848,-10.9923,-11.0031,-11.0091,-11.0208,-11.0305,-11.0384,-11.0405,-11.0341,-11.0335,-11.037,-11.0383,-11.0384,-11.0381,-10.9914,-11.0324,-11.0321,-11.0318,-11.0316,-11.0315,-10.9081,-10.9199,-10.9247,-10.9312,-10.9343,-10.9448,-10.9508,-10.9472,-10.9536,-10.9602,-10.9689,-10.9788,-10.9865,-11.0036,-11.0038,-11.0125,-11.0093,-11.025,-11.0106,-11.0114,-11.009,-11.0083,-11.0092,-11.0278,-11.0282,-11.0286,-11.0289,0,-10.8871,-10.886,-10.9039,-10.9075,-10.9087,-10.921,-10.9238,-10.9334,-10.933,-10.946,-10.9488,-10.9481,-10.9586,-10.9564,-10.9679,-10.9663,-10.9857,-10.9827,-10.9841,-10.9832,-10.9967,-10.9953,-11.0417,-11.0474,-11.0064,-11.0068,-11.0072,0,-10.8546,-10.8702,-10.8675,-10.878,-10.8949,-10.8909,-10.9077,-10.9091,-10.913,-10.9232,-10.9159,-10.9256,-10.9213,-10.9305,-10.9283,-10.9438,-10.9461,-10.9456,-10.9448,-10.9461,-10.9461,-10.9491,-10.947,-10.943,-10.9427,-10.9425,-10.9423,0,-10.8215,-10.8385,-10.8555,-10.8591,-10.8644,-10.8724,-10.875,-10.8794,-10.8853,-10.8925,-10.8962,-10.905,-10.9096,-10.9163,-10.9134,-10.9036,-10.9324,-10.9184,-10.9319,-10.932,-10.9382,-10.9378,-10.9797,-10.942,-10.942,-10.9419,-10.9418,0,-10.7949,-10.8029,-10.8279,-10.832,-10.8366,-10.8478,-10.8562,-10.8654,-10.8705,-10.8699,-10.8756,-10.8703,-10.8841,-10.8702,-10.8889,-10.8769,-10.8819,-10.8828,-10.8837,-10.8845,-10.8689,-10.8924,-10.933,-10.9369,-10.8855,-10.8851,-10.8846,0,-10.7571,-10.7822,-10.779,-10.8028,-10.8141,-10.805,-10.8174,-10.8223,-10.8225,-10.8317,-10.8318,-10.8424,-10.8317,-10.8346,-10.8442,-10.8446,-10.8601,-10.8425,-10.8551,-10.8556,-10.8536,-10.891,-10.8974,-10.9244,-10.8786,-10.8793,-10.8797,0,-10.7276,-10.7343,-10.7388,-10.7426,-10.7488,-10.7582,-10.7725,-10.7822,-10.7885,-10.795,-10.8065,-10.8215,-10.8138,-10.8189,-10.8155,-10.8257,-10.8494,-10.816,-10.816,-10.8218,-10.8756,-10.8815,-10.8861,-10.8449,-10.8456,-10.8462,-10.8749,0,-10.687,-10.6995,-10.7118,-10.721,-10.7279,-10.7429,-10.7409,-10.7484,-10.7445,-10.7444,-10.7615,-10.765,-10.7747,-10.7795,-10.7758,-10.7998,-10.7953,-10.7871,-10.7731,-10.7979,-10.8072,-10.8111,-10.7593,-10.7589,-10.7585,-10.7582,0,0,-10.6508,-10.6688,-10.6649,-10.6788,-10.6844,-10.6749,-10.691,-10.6953,-10.7043,-10.7082,-10.7005,-10.7221,-10.7253,-10.7462,-10.7538,-10.7579,-10.7618,-10.7533,-10.7862,-10.7893,-10.7922,-10.8023,-10.8064,-10.7576,-10.7575,-10.7574,-10.7572,0,-10.6355,-10.6396,-10.6559,-10.6602,-10.6666,-10.6658,-10.6697,-10.6742,-10.6748,-10.6919,-10.6834,-10.6934,-10.7111,-10.7153,-10.7198,-10.7508,-10.7437,-10.754,-10.7713,-10.7827,-10.7863,-10.7895,-10.8002,-10.8041,-10.7564,-10.7564,-10.7565,0,-10.6058,-10.6093,-10.617,-10.6298,-10.6338,-10.6457,-10.6307,-10.644,-10.6526,-10.6412,-10.6582,-10.6598,-10.6654,-10.6858,-10.6948,-10.6879,-10.7273,-10.7147,-10.7168,-10.7177,-10.7286,-10.7329,-10.7368,-10.6858,-10.6856,-10.6853,0,0,-10.5928,-10.6046,-10.6071,-10.6263,-10.6295,-10.6286,-10.6347,-10.6315,-10.637,-10.6393,-10.6412,-10.6467,-10.6567,-10.6635,-10.6728,-10.6955,-10.6961,-10.7061,-10.7094,-10.7121,-10.7144,-10.7261,-10.7304,-10.6845,-10.6844,-10.6844,0,0,-10.5864,-10.5903,-10.5855,-10.6076,-10.6133,-10.6169,-10.6285,-10.6226,-10.6309,-10.6289,-10.6238,-10.6251,-10.644,-10.6459,-10.6343,-10.6677,-10.654,-10.6568,-10.6658,-10.6699,-10.6732,-10.6722,-10.6191,0,0,0,0,0,-10.5698,-10.5898,-10.5854,-10.5888,-10.6049,-10.6194,-10.6213,-10.6178,-10.6081,-10.6174,-10.618,-10.6101,-10.6385,-10.6281,-10.6313,-10.6443,-10.6729,-10.675,-10.6769,-10.6938,-10.6982,-10.7019,0,0,0,0,0,0,-10.5711,-10.5754,-10.5849,-10.5894,-10.5929,-10.6186,-10.6014,-10.601,-10.607,-10.6053,-10.6102,-10.6102,-10.6073,-10.6261,-10.6291,-10.6415,-10.618,-10.6737,-10.6755,-10.677,-10.6953,-10.6989,-10.702,0,0,0,0,0,-10.5722,-10.5755,-10.6023,-10.5891,-10.5922,-10.5922,-10.6006,-10.6001,-10.6047,-10.6058,-10.6055,-10.6015,-10.6077,-10.61,-10.6279,-10.6403,-10.6159,-10.6171,-10.6749,-10.6762,-10.6774,-10.697,0,0,0,0,0,0,-10.5729,-10.5751,-10.6028,-10.6036,-10.5813,-10.5906,-10.592,-10.5994,-10.6047,-10.6047,-10.5966,-10.5952,-10.6083,-10.61,-10.6118,-10.64,-10.6142,-10.6154,-10.6161,-10.6759,-10.677,-10.6779,0,0,0,0,0,0,-10.5732,-10.5758,-10.6032,-10.5936,-10.5933,-10.5893,-10.5905,-10.6051,-10.6049,-10.5952,-10.5942,-10.5959,-10.6055,-10.6101,-10.6114,-10.6344,-10.6129,-10.614,-10.6148,-10.6152,-10.6768,-10.6776,0,0,0,0,0,0,-10.5742,-10.5765,-10.5934,-10.5932,-10.5928,-10.6014,-10.6021,-10.6186,-10.597,-10.5951,-10.5949,-10.594,-10.6058,-10.6071,-10.6112,-10.6337,-10.6342,-10.6129,-10.6137,-10.6142,-10.6146,0,0,0,0,0,0,0,-10.5751,-10.561,-10.5982,-10.5928,-10.5924,-10.6109,-10.6111,-10.6113,-10.5968,-10.596,-10.5952,-10.5944,-10.6065,-10.6077,-10.609,-10.6332,0,0,-10.6128,-10.6133,0,0,0,0,0,0,0,0,-10.56,-10.5608,-10.5982,-10.5984,-10.5985,-10.6109,-10.6111,-10.6113,-10.5967,-10.596,-10.5953,-10.5947,-10.6068,-10.6078,-10.6088,0,0,0,0,0,0,0,0,0,0,0,0,0,0,0,-10.5982,-10.5984,0,-10.611,-10.6111,-10.6112,-10.5966,-10.596,-10.5955,-10.595,-10.6071,-10.6079,-10.6088,0,0,0,0,0,0,0,0,0,0,0,0,0,0,0,0,0,0,0,0,0,0,0,0,0,0,0,0,0,0,0,0,0,0,0,0,0,0,0,0,0,0,0,0,0,0,0,0,0,0,0,0,0,0,0,0,0,0,0,0,0,0,0,0,0,0,0,0,0]}]]]